iso_date,epoch_date,Year,Hour,Min,DOY,POS_DOY,Lat,Lon,BP,Ts,Ta,has_bp,has_ts,has_ta,BuoyID,Buoy_Type,Buoy_Owner,Logistics,Hemisphere
2021-07-06T18:00:00Z,1625594400,2021,18,0,187.75,187.75,61.097,-15.788,1007.1,12.08,-999.0,yes,yes,no,300234066214720,BD2VHI,AOML,UNKNOWN,North
2021-07-06T21:00:00Z,1625605200,2021,21,0,187.875,187.875,61.101,-15.815,1007.7,12.08,-999.0,yes,yes,no,300234066214720,BD2VHI,AOML,UNKNOWN,North
2021-07-07T00:00:00Z,1625616000,2021,0,0,188.0,188.0,61.107,-15.823,1008.3,12.05,-999.0,yes,yes,no,300234066214720,BD2VHI,AOML,UNKNOWN,North
2021-07-07T03:00:00Z,1625626800,2021,3,0,188.125,188.125,61.109,-15.823,1008.5,12.0,-999.0,yes,yes,no,300234066214720,BD2VHI,AOML,UNKNOWN,North
2021-07-07T06:00:00Z,1625637600,2021,6,0,188.25,188.25,61.117,-15.82,1009.0,12.05,-999.0,yes,yes,no,300234066214720,BD2VHI,AOML,UNKNOWN,North
2021-07-07T09:00:00Z,1625648400,2021,9,0,188.375,188.375,61.129,-15.818,1009.9,12.0,-999.0,yes,yes,no,300234066214720,BD2VHI,AOML,UNKNOWN,North
2021-07-07T12:00:00Z,1625659200,2021,12,0,188.5,188.5,61.139,-15.816,1011.0,12.04,-999.0,yes,yes,no,300234066214720,BD2VHI,AOML,UNKNOWN,North
2021-07-07T15:00:00Z,1625670000,2021,15,0,188.625,188.625,61.148,-15.815,1011.8,12.21,-999.0,yes,yes,no,300234066214720,BD2VHI,AOML,UNKNOWN,North
2021-07-07T18:00:00Z,1625680800,2021,18,0,188.75,188.75,61.157,-15.808,1012.4,12.19,-999.0,yes,yes,no,300234066214720,BD2VHI,AOML,UNKNOWN,North
2021-07-07T21:00:00Z,1625691600,2021,21,0,188.875,188.875,61.173,-15.796,1013.4,12.19,-999.0,yes,yes,no,300234066214720,BD2VHI,AOML,UNKNOWN,North
2021-07-08T00:00:00Z,1625702400,2021,0,0,189.0,189.0,61.189,-15.779,1014.6,12.15,-999.0,yes,yes,no,300234066214720,BD2VHI,AOML,UNKNOWN,North
2021-07-08T03:00:00Z,1625713200,2021,3,0,189.125,189.125,61.208,-15.767,1014.5,12.13,-999.0,yes,yes,no,300234066214720,BD2VHI,AOML,UNKNOWN,North
2021-07-08T06:00:00Z,1625724000,2021,6,0,189.25,189.25,61.229,-15.741,1014.9,12.07,-999.0,yes,yes,no,300234066214720,BD2VHI,AOML,UNKNOWN,North
2021-07-08T09:00:00Z,1625734800,2021,9,0,189.375,189.375,61.258,-15.722,1016.0,12.11,-999.0,yes,yes,no,300234066214720,BD2VHI,AOML,UNKNOWN,North
2021-07-08T12:00:00Z,1625745600,2021,12,0,189.5,189.5,61.29,-15.688,1016.8,12.3,-999.0,yes,yes,no,300234066214720,BD2VHI,AOML,UNKNOWN,North
2021-07-08T15:00:00Z,1625756400,2021,15,0,189.625,189.625,61.317,-15.649,1017.2,12.41,-999.0,yes,yes,no,300234066214720,BD2VHI,AOML,UNKNOWN,North
2021-07-08T18:00:00Z,1625767200,2021,18,0,189.75,189.75,61.339,-15.599,1017.6,12.41,-999.0,yes,yes,no,300234066214720,BD2VHI,AOML,UNKNOWN,North
2021-07-08T21:00:00Z,1625778000,2021,21,0,189.875,189.875,61.36,-15.544,1018.5,12.37,-999.0,yes,yes,no,300234066214720,BD2VHI,AOML,UNKNOWN,North
2021-07-09T00:00:00Z,1625788800,2021,0,0,190.0,190.0,61.391,-15.492,1019.1,12.3,-999.0,yes,yes,no,300234066214720,BD2VHI,AOML,UNKNOWN,North
2021-07-09T03:00:00Z,1625799600,2021,3,0,190.125,190.125,61.416,-15.409,1018.7,12.3,-999.0,yes,yes,no,300234066214720,BD2VHI,AOML,UNKNOWN,North
2021-07-09T06:00:00Z,1625810400,2021,6,0,190.25,190.25,61.424,-15.338,1018.6,12.34,-999.0,yes,yes,no,300234066214720,BD2VHI,AOML,UNKNOWN,North
2021-07-09T09:00:00Z,1625821200,2021,9,0,190.375,190.375,61.438,-15.285,1018.9,12.29,-999.0,yes,yes,no,300234066214720,BD2VHI,AOML,UNKNOWN,North
2021-07-09T12:00:00Z,1625832000,2021,12,0,190.5,190.5,61.455,-15.237,1019.0,12.29,-999.0,yes,yes,no,300234066214720,BD2VHI,AOML,UNKNOWN,North
2021-07-09T15:00:00Z,1625842800,2021,15,0,190.625,190.625,61.469,-15.192,1018.4,12.3,-999.0,yes,yes,no,300234066214720,BD2VHI,AOML,UNKNOWN,North
2021-07-09T18:00:00Z,1625853600,2021,18,0,190.75,190.75,61.48,-15.136,1017.7,12.38,-999.0,yes,yes,no,300234066214720,BD2VHI,AOML,UNKNOWN,North
2021-07-09T21:00:00Z,1625864400,2021,21,0,190.875,190.875,61.486,-15.082,1018.1,12.35,-999.0,yes,yes,no,300234066214720,BD2VHI,AOML,UNKNOWN,North
2021-07-10T00:00:00Z,1625875200,2021,0,0,191.0,191.0,61.489,-15.041,1017.6,12.31,-999.0,yes,yes,no,300234066214720,BD2VHI,AOML,UNKNOWN,North
2021-07-10T03:00:00Z,1625886000,2021,3,0,191.125,191.125,61.495,-15.005,1016.6,12.28,-999.0,yes,yes,no,300234066214720,BD2VHI,AOML,UNKNOWN,North
2021-07-10T06:00:00Z,1625896800,2021,6,0,191.25,191.25,61.504,-14.977,1016.3,12.16,-999.0,yes,yes,no,300234066214720,BD2VHI,AOML,UNKNOWN,North
2021-07-10T09:00:00Z,1625907600,2021,9,0,191.375,191.375,61.513,-14.924,1016.5,12.1,-999.0,yes,yes,no,300234066214720,BD2VHI,AOML,UNKNOWN,North
2021-07-10T12:00:00Z,1625918400,2021,12,0,191.5,191.5,61.513,-14.87,1016.3,12.28,-999.0,yes,yes,no,300234066214720,BD2VHI,AOML,UNKNOWN,North
2021-07-10T15:00:00Z,1625929200,2021,15,0,191.625,191.625,61.505,-14.858,1015.6,12.3,-999.0,yes,yes,no,300234066214720,BD2VHI,AOML,UNKNOWN,North
2021-07-10T18:00:00Z,1625940000,2021,18,0,191.75,191.75,61.512,-14.872,1015.0,12.21,-999.0,yes,yes,no,300234066214720,BD2VHI,AOML,UNKNOWN,North
2021-07-10T21:00:00Z,1625950800,2021,21,0,191.875,191.875,61.525,-14.851,1015.6,12.39,-999.0,yes,yes,no,300234066214720,BD2VHI,AOML,UNKNOWN,North
2021-07-11T00:00:00Z,1625961600,2021,0,0,192.0,192.0,61.53,-14.823,1016.2,12.36,-999.0,yes,yes,no,300234066214720,BD2VHI,AOML,UNKNOWN,North
2021-07-11T03:00:00Z,1625972400,2021,3,0,192.125,192.125,61.527,-14.811,1015.8,12.3,-999.0,yes,yes,no,300234066214720,BD2VHI,AOML,UNKNOWN,North
2021-07-11T06:00:00Z,1625983200,2021,6,0,192.25,192.25,61.52,-14.805,1015.6,12.34,-999.0,yes,yes,no,300234066214720,BD2VHI,AOML,UNKNOWN,North
2021-07-11T09:00:00Z,1625994000,2021,9,0,192.375,192.375,61.513,-14.783,1016.0,12.41,-999.0,yes,yes,no,300234066214720,BD2VHI,AOML,UNKNOWN,North
2021-07-11T12:00:00Z,1626004800,2021,12,0,192.5,192.5,61.508,-14.763,1016.6,12.55,-999.0,yes,yes,no,300234066214720,BD2VHI,AOML,UNKNOWN,North
2021-07-11T15:00:00Z,1626015600,2021,15,0,192.625,192.625,61.501,-14.754,1016.8,12.78,-999.0,yes,yes,no,300234066214720,BD2VHI,AOML,UNKNOWN,North
2021-07-11T18:00:00Z,1626026400,2021,18,0,192.75,192.75,61.494,-14.747,1016.0,12.79,-999.0,yes,yes,no,300234066214720,BD2VHI,AOML,UNKNOWN,North
2021-07-11T21:00:00Z,1626037200,2021,21,0,192.875,192.875,61.489,-14.727,1016.1,12.76,-999.0,yes,yes,no,300234066214720,BD2VHI,AOML,UNKNOWN,North
2021-07-12T00:00:00Z,1626048000,2021,0,0,193.0,193.0,61.488,-14.703,1016.0,12.71,-999.0,yes,yes,no,300234066214720,BD2VHI,AOML,UNKNOWN,North
2021-07-12T03:00:00Z,1626058800,2021,3,0,193.125,193.125,61.484,-14.67,1015.2,12.68,-999.0,yes,yes,no,300234066214720,BD2VHI,AOML,UNKNOWN,North
2021-07-12T06:00:00Z,1626069600,2021,6,0,193.25,193.25,61.47,-14.648,1014.4,12.63,-999.0,yes,yes,no,300234066214720,BD2VHI,AOML,UNKNOWN,North
2021-07-12T09:00:00Z,1626080400,2021,9,0,193.375,193.375,61.464,-14.637,1014.7,12.65,-999.0,yes,yes,no,300234066214720,BD2VHI,AOML,UNKNOWN,North
2021-07-12T12:00:00Z,1626091200,2021,12,0,193.5,193.5,61.465,-14.62,1014.4,12.64,-999.0,yes,yes,no,300234066214720,BD2VHI,AOML,UNKNOWN,North
2021-07-12T15:00:00Z,1626102000,2021,15,0,193.625,193.625,61.47,-14.592,1014.1,12.55,-999.0,yes,yes,no,300234066214720,BD2VHI,AOML,UNKNOWN,North
2021-07-12T18:00:00Z,1626112800,2021,18,0,193.75,193.75,61.468,-14.567,1013.9,12.54,-999.0,yes,yes,no,300234066214720,BD2VHI,AOML,UNKNOWN,North
2021-07-12T21:00:00Z,1626123600,2021,21,0,193.875,193.875,61.46,-14.534,1013.8,12.45,-999.0,yes,yes,no,300234066214720,BD2VHI,AOML,UNKNOWN,North
2021-07-13T00:00:00Z,1626134400,2021,0,0,194.0,194.0,61.458,-14.507,1014.1,12.31,-999.0,yes,yes,no,300234066214720,BD2VHI,AOML,UNKNOWN,North
2021-07-13T03:00:00Z,1626145200,2021,3,0,194.125,194.125,61.463,-14.49,1013.9,12.25,-999.0,yes,yes,no,300234066214720,BD2VHI,AOML,UNKNOWN,North
2021-07-13T06:00:00Z,1626156000,2021,6,0,194.25,194.25,61.465,-14.462,1013.6,12.23,-999.0,yes,yes,no,300234066214720,BD2VHI,AOML,UNKNOWN,North
2021-07-13T09:00:00Z,1626166800,2021,9,0,194.375,194.375,61.453,-14.421,1014.8,12.44,-999.0,yes,yes,no,300234066214720,BD2VHI,AOML,UNKNOWN,North
2021-07-13T12:00:00Z,1626177600,2021,12,0,194.5,194.5,61.443,-14.388,1015.1,12.68,-999.0,yes,yes,no,300234066214720,BD2VHI,AOML,UNKNOWN,North
2021-07-13T15:00:00Z,1626188400,2021,15,0,194.625,194.625,61.449,-14.361,1015.8,12.69,-999.0,yes,yes,no,300234066214720,BD2VHI,AOML,UNKNOWN,North
2021-07-13T18:00:00Z,1626199200,2021,18,0,194.75,194.75,61.463,-14.321,1014.9,12.74,-999.0,yes,yes,no,300234066214720,BD2VHI,AOML,UNKNOWN,North
2021-07-13T21:00:00Z,1626210000,2021,21,0,194.875,194.875,61.474,-14.28,1015.3,12.77,-999.0,yes,yes,no,300234066214720,BD2VHI,AOML,UNKNOWN,North
2021-07-14T00:00:00Z,1626220800,2021,0,0,195.0,195.0,61.49,-14.265,1013.8,12.76,-999.0,yes,yes,no,300234066214720,BD2VHI,AOML,UNKNOWN,North
2021-07-14T03:00:00Z,1626231600,2021,3,0,195.125,195.125,61.521,-14.272,1011.7,12.71,-999.0,yes,yes,no,300234066214720,BD2VHI,AOML,UNKNOWN,North
2021-07-14T06:00:00Z,1626242400,2021,6,0,195.25,195.25,61.554,-14.264,1008.2,12.67,-999.0,yes,yes,no,300234066214720,BD2VHI,AOML,UNKNOWN,North
2021-07-14T09:00:00Z,1626253200,2021,9,0,195.375,195.375,61.575,-14.276,1004.8,12.59,-999.0,yes,yes,no,300234066214720,BD2VHI,AOML,UNKNOWN,North
2021-07-14T12:00:00Z,1626264000,2021,12,0,195.5,195.5,61.597,-14.298,1003.1,12.74,-999.0,yes,yes,no,300234066214720,BD2VHI,AOML,UNKNOWN,North
2021-07-14T15:00:00Z,1626274800,2021,15,0,195.625,195.625,61.604,-14.259,1005.7,12.75,-999.0,yes,yes,no,300234066214720,BD2VHI,AOML,UNKNOWN,North
2021-07-14T18:00:00Z,1626285600,2021,18,0,195.75,195.75,61.603,-14.197,1007.7,12.65,-999.0,yes,yes,no,300234066214720,BD2VHI,AOML,UNKNOWN,North
2021-07-14T21:00:00Z,1626296400,2021,21,0,195.875,195.875,61.602,-14.131,1009.8,12.46,-999.0,yes,yes,no,300234066214720,BD2VHI,AOML,UNKNOWN,North
2021-07-15T00:00:00Z,1626307200,2021,0,0,196.0,196.0,61.607,-14.043,1011.7,11.77,-999.0,yes,yes,no,300234066214720,BD2VHI,AOML,UNKNOWN,North
2021-07-15T03:00:00Z,1626318000,2021,3,0,196.125,196.125,61.604,-13.972,1013.5,11.79,-999.0,yes,yes,no,300234066214720,BD2VHI,AOML,UNKNOWN,North
2021-07-15T06:00:00Z,1626328800,2021,6,0,196.25,196.25,61.605,-13.948,1014.6,11.94,-999.0,yes,yes,no,300234066214720,BD2VHI,AOML,UNKNOWN,North
2021-07-15T09:00:00Z,1626339600,2021,9,0,196.375,196.375,61.622,-13.928,1014.6,12.01,-999.0,yes,yes,no,300234066214720,BD2VHI,AOML,UNKNOWN,North
2021-07-15T12:00:00Z,1626350400,2021,12,0,196.5,196.5,61.647,-13.899,1012.9,12.09,-999.0,yes,yes,no,300234066214720,BD2VHI,AOML,UNKNOWN,North
2021-07-15T15:00:00Z,1626361200,2021,15,0,196.625,196.625,61.671,-13.866,1010.3,12.03,-999.0,yes,yes,no,300234066214720,BD2VHI,AOML,UNKNOWN,North
2021-07-15T18:00:00Z,1626372000,2021,18,0,196.75,196.75,61.691,-13.824,1009.0,12.0,-999.0,yes,yes,no,300234066214720,BD2VHI,AOML,UNKNOWN,North
2021-07-15T21:00:00Z,1626382800,2021,21,0,196.875,196.875,61.703,-13.781,1008.7,11.71,-999.0,yes,yes,no,300234066214720,BD2VHI,AOML,UNKNOWN,North
2021-07-16T00:00:00Z,1626393600,2021,0,0,197.0,197.0,61.722,-13.741,1008.3,11.74,-999.0,yes,yes,no,300234066214720,BD2VHI,AOML,UNKNOWN,North
2021-07-16T03:00:00Z,1626404400,2021,3,0,197.125,197.125,61.748,-13.711,1006.9,11.76,-999.0,yes,yes,no,300234066214720,BD2VHI,AOML,UNKNOWN,North
2021-07-16T06:00:00Z,1626415200,2021,6,0,197.25,197.25,61.776,-13.661,1006.0,11.71,-999.0,yes,yes,no,300234066214720,BD2VHI,AOML,UNKNOWN,North
2021-07-16T09:00:00Z,1626426000,2021,9,0,197.375,197.375,61.784,-13.587,1007.0,11.65,-999.0,yes,yes,no,300234066214720,BD2VHI,AOML,UNKNOWN,North
2021-07-16T12:00:00Z,1626436800,2021,12,0,197.5,197.5,61.778,-13.512,1009.3,11.63,-999.0,yes,yes,no,300234066214720,BD2VHI,AOML,UNKNOWN,North
2021-07-16T15:00:00Z,1626447600,2021,15,0,197.625,197.625,61.775,-13.467,1010.6,11.68,-999.0,yes,yes,no,300234066214720,BD2VHI,AOML,UNKNOWN,North
2021-07-16T18:00:00Z,1626458400,2021,18,0,197.75,197.75,61.787,-13.427,1011.5,11.68,-999.0,yes,yes,no,300234066214720,BD2VHI,AOML,UNKNOWN,North
2021-07-16T21:00:00Z,1626469200,2021,21,0,197.875,197.875,61.799,-13.373,1011.9,11.65,-999.0,yes,yes,no,300234066214720,BD2VHI,AOML,UNKNOWN,North
2021-07-17T00:00:00Z,1626480000,2021,0,0,198.0,198.0,61.801,-13.313,1012.0,11.65,-999.0,yes,yes,no,300234066214720,BD2VHI,AOML,UNKNOWN,North
2021-07-17T03:00:00Z,1626490800,2021,3,0,198.125,198.125,61.802,-13.258,1012.4,11.6,-999.0,yes,yes,no,300234066214720,BD2VHI,AOML,UNKNOWN,North
2021-07-17T06:00:00Z,1626501600,2021,6,0,198.25,198.25,61.797,-13.221,1013.1,11.58,-999.0,yes,yes,no,300234066214720,BD2VHI,AOML,UNKNOWN,North
2021-07-17T09:00:00Z,1626512400,2021,9,0,198.375,198.375,61.793,-13.191,1015.3,11.5,-999.0,yes,yes,no,300234066214720,BD2VHI,AOML,UNKNOWN,North
2021-07-17T12:00:00Z,1626523200,2021,12,0,198.5,198.5,61.789,-13.145,1017.5,11.46,-999.0,yes,yes,no,300234066214720,BD2VHI,AOML,UNKNOWN,North
2021-07-17T15:00:00Z,1626534000,2021,15,0,198.625,198.625,61.786,-13.105,1019.0,11.46,-999.0,yes,yes,no,300234066214720,BD2VHI,AOML,UNKNOWN,North
2021-07-17T18:00:00Z,1626544800,2021,18,0,198.75,198.75,61.793,-13.075,1020.0,11.43,-999.0,yes,yes,no,300234066214720,BD2VHI,AOML,UNKNOWN,North
2021-07-17T21:00:00Z,1626555600,2021,21,0,198.875,198.875,61.805,-13.039,1020.9,11.47,-999.0,yes,yes,no,300234066214720,BD2VHI,AOML,UNKNOWN,North
2021-07-18T00:00:00Z,1626566400,2021,0,0,199.0,199.0,61.808,-12.994,1021.1,11.41,-999.0,yes,yes,no,300234066214720,BD2VHI,AOML,UNKNOWN,North
2021-07-18T03:00:00Z,1626577200,2021,3,0,199.125,199.125,61.819,-12.964,1021.3,11.41,-999.0,yes,yes,no,300234066214720,BD2VHI,AOML,UNKNOWN,North
2021-07-18T06:00:00Z,1626588000,2021,6,0,199.25,199.25,61.833,-12.92,1021.5,11.45,-999.0,yes,yes,no,300234066214720,BD2VHI,AOML,UNKNOWN,North
2021-07-18T09:00:00Z,1626598800,2021,9,0,199.375,199.375,61.84,-12.891,1022.1,11.49,-999.0,yes,yes,no,300234066214720,BD2VHI,AOML,UNKNOWN,North
2021-07-18T12:00:00Z,1626609600,2021,12,0,199.5,199.5,61.846,-12.856,1021.9,11.54,-999.0,yes,yes,no,300234066214720,BD2VHI,AOML,UNKNOWN,North
2021-07-18T15:00:00Z,1626620400,2021,15,0,199.625,199.625,61.863,-12.807,1021.6,11.64,-999.0,yes,yes,no,300234066214720,BD2VHI,AOML,UNKNOWN,North
2021-07-18T18:00:00Z,1626631200,2021,18,0,199.75,199.75,61.879,-12.747,1020.6,11.68,-999.0,yes,yes,no,300234066214720,BD2VHI,AOML,UNKNOWN,North
2021-07-18T21:00:00Z,1626642000,2021,21,0,199.875,199.875,61.886,-12.709,1019.6,11.71,-999.0,yes,yes,no,300234066214720,BD2VHI,AOML,UNKNOWN,North
2021-07-19T00:00:00Z,1626652800,2021,0,0,200.0,200.0,61.889,-12.683,1018.7,11.71,-999.0,yes,yes,no,300234066214720,BD2VHI,AOML,UNKNOWN,North
2021-07-19T03:00:00Z,1626663600,2021,3,0,200.125,200.125,61.901,-12.623,1018.1,11.69,-999.0,yes,yes,no,300234066214720,BD2VHI,AOML,UNKNOWN,North
2021-07-19T06:00:00Z,1626674400,2021,6,0,200.25,200.25,61.909,-12.534,1017.7,11.67,-999.0,yes,yes,no,300234066214720,BD2VHI,AOML,UNKNOWN,North
2021-07-19T09:00:00Z,1626685200,2021,9,0,200.375,200.375,61.898,-12.451,1017.7,11.68,-999.0,yes,yes,no,300234066214720,BD2VHI,AOML,UNKNOWN,North
2021-07-19T12:00:00Z,1626696000,2021,12,0,200.5,200.5,61.882,-12.416,1018.0,11.74,-999.0,yes,yes,no,300234066214720,BD2VHI,AOML,UNKNOWN,North
2021-07-19T15:00:00Z,1626706800,2021,15,0,200.625,200.625,61.888,-12.381,1018.8,11.77,-999.0,yes,yes,no,300234066214720,BD2VHI,AOML,UNKNOWN,North
2021-07-19T18:00:00Z,1626717600,2021,18,0,200.75,200.75,61.899,-12.311,1019.1,11.74,-999.0,yes,yes,no,300234066214720,BD2VHI,AOML,UNKNOWN,North
2021-07-19T21:00:00Z,1626728400,2021,21,0,200.875,200.875,61.893,-12.263,1019.7,11.69,-999.0,yes,yes,no,300234066214720,BD2VHI,AOML,UNKNOWN,North
2021-07-20T00:00:00Z,1626739200,2021,0,0,201.0,201.0,61.888,-12.245,1019.7,11.68,-999.0,yes,yes,no,300234066214720,BD2VHI,AOML,UNKNOWN,North
2021-07-20T03:00:00Z,1626750000,2021,3,0,201.125,201.125,61.894,-12.222,1019.6,11.7,-999.0,yes,yes,no,300234066214720,BD2VHI,AOML,UNKNOWN,North
2021-07-20T06:00:00Z,1626760800,2021,6,0,201.25,201.25,61.906,-12.184,1019.6,11.65,-999.0,yes,yes,no,300234066214720,BD2VHI,AOML,UNKNOWN,North
2021-07-20T09:00:00Z,1626771600,2021,9,0,201.375,201.375,61.909,-12.15,1020.4,11.62,-999.0,yes,yes,no,300234066214720,BD2VHI,AOML,UNKNOWN,North
2021-07-20T12:00:00Z,1626782400,2021,12,0,201.5,201.5,61.905,-12.153,1019.9,11.71,-999.0,yes,yes,no,300234066214720,BD2VHI,AOML,UNKNOWN,North
2021-07-20T15:00:00Z,1626793200,2021,15,0,201.625,201.625,61.909,-12.164,1020.0,11.76,-999.0,yes,yes,no,300234066214720,BD2VHI,AOML,UNKNOWN,North
2021-07-20T18:00:00Z,1626804000,2021,18,0,201.75,201.75,61.926,-12.159,1020.1,11.72,-999.0,yes,yes,no,300234066214720,BD2VHI,AOML,UNKNOWN,North
2021-07-20T21:00:00Z,1626814800,2021,21,0,201.875,201.875,61.94,-12.125,1019.7,11.73,-999.0,yes,yes,no,300234066214720,BD2VHI,AOML,UNKNOWN,North
2021-07-21T00:00:00Z,1626825600,2021,0,0,202.0,202.0,61.935,-12.102,1020.1,11.84,-999.0,yes,yes,no,300234066214720,BD2VHI,AOML,UNKNOWN,North
2021-07-21T03:00:00Z,1626836400,2021,3,0,202.125,202.125,61.92,-12.082,1019.8,11.7,-999.0,yes,yes,no,300234066214720,BD2VHI,AOML,UNKNOWN,North
2021-07-21T06:00:00Z,1626847200,2021,6,0,202.25,202.25,61.916,-12.053,1019.9,11.69,-999.0,yes,yes,no,300234066214720,BD2VHI,AOML,UNKNOWN,North
2021-07-21T09:00:00Z,1626858000,2021,9,0,202.375,202.375,61.91,-12.028,1020.7,11.67,-999.0,yes,yes,no,300234066214720,BD2VHI,AOML,UNKNOWN,North
2021-07-21T12:00:00Z,1626868800,2021,12,0,202.5,202.5,61.886,-12.005,1021.6,11.64,-999.0,yes,yes,no,300234066214720,BD2VHI,AOML,UNKNOWN,North
2021-07-21T15:00:00Z,1626879600,2021,15,0,202.625,202.625,61.864,-11.999,1022.1,11.8,-999.0,yes,yes,no,300234066214720,BD2VHI,AOML,UNKNOWN,North
2021-07-21T18:00:00Z,1626890400,2021,18,0,202.75,202.75,61.859,-11.979,1022.6,11.89,-999.0,yes,yes,no,300234066214720,BD2VHI,AOML,UNKNOWN,North
2021-07-21T21:00:00Z,1626901200,2021,21,0,202.875,202.875,61.859,-11.949,1023.1,11.88,-999.0,yes,yes,no,300234066214720,BD2VHI,AOML,UNKNOWN,North
2021-07-22T00:00:00Z,1626912000,2021,0,0,203.0,203.0,61.852,-11.93,1023.7,11.83,-999.0,yes,yes,no,300234066214720,BD2VHI,AOML,UNKNOWN,North
2021-07-22T03:00:00Z,1626922800,2021,3,0,203.125,203.125,61.848,-11.942,1023.7,11.81,-999.0,yes,yes,no,300234066214720,BD2VHI,AOML,UNKNOWN,North
2021-07-22T06:00:00Z,1626933600,2021,6,0,203.25,203.25,61.862,-11.934,1023.5,11.78,-999.0,yes,yes,no,300234066214720,BD2VHI,AOML,UNKNOWN,North
2021-07-22T09:00:00Z,1626944400,2021,9,0,203.375,203.375,61.875,-11.907,1023.9,11.96,-999.0,yes,yes,no,300234066214720,BD2VHI,AOML,UNKNOWN,North
2021-07-22T12:00:00Z,1626955200,2021,12,0,203.5,203.5,61.879,-11.904,1024.0,12.02,-999.0,yes,yes,no,300234066214720,BD2VHI,AOML,UNKNOWN,North
2021-07-22T15:00:00Z,1626966000,2021,15,0,203.625,203.625,61.889,-11.93,1022.7,12.08,-999.0,yes,yes,no,300234066214720,BD2VHI,AOML,UNKNOWN,North
2021-07-22T18:00:00Z,1626976800,2021,18,0,203.75,203.75,61.919,-11.937,1020.9,12.04,-999.0,yes,yes,no,300234066214720,BD2VHI,AOML,UNKNOWN,North
2021-07-22T21:00:00Z,1626987600,2021,21,0,203.875,203.875,61.948,-11.927,1019.8,11.85,-999.0,yes,yes,no,300234066214720,BD2VHI,AOML,UNKNOWN,North
2021-07-23T00:00:00Z,1626998400,2021,0,0,204.0,204.0,61.968,-11.943,1019.2,11.76,-999.0,yes,yes,no,300234066214720,BD2VHI,AOML,UNKNOWN,North
2021-07-23T03:00:00Z,1627009200,2021,3,0,204.125,204.125,61.984,-11.981,1018.2,11.89,-999.0,yes,yes,no,300234066214720,BD2VHI,AOML,UNKNOWN,North
2021-07-23T06:00:00Z,1627020000,2021,6,0,204.25,204.25,62.005,-11.992,1016.9,11.92,-999.0,yes,yes,no,300234066214720,BD2VHI,AOML,UNKNOWN,North
2021-07-23T09:00:00Z,1627030800,2021,9,0,204.375,204.375,62.033,-11.976,1016.6,11.9,-999.0,yes,yes,no,300234066214720,BD2VHI,AOML,UNKNOWN,North
2021-07-23T12:00:00Z,1627041600,2021,12,0,204.5,204.5,62.045,-11.975,1016.1,11.93,-999.0,yes,yes,no,300234066214720,BD2VHI,AOML,UNKNOWN,North
2021-07-23T15:00:00Z,1627052400,2021,15,0,204.625,204.625,62.053,-12.014,1015.3,11.96,-999.0,yes,yes,no,300234066214720,BD2VHI,AOML,UNKNOWN,North
2021-07-23T18:00:00Z,1627063200,2021,18,0,204.75,204.75,62.07,-12.03,1014.3,11.99,-999.0,yes,yes,no,300234066214720,BD2VHI,AOML,UNKNOWN,North
2021-07-23T21:00:00Z,1627074000,2021,21,0,204.875,204.875,62.092,-12.0,1014.1,11.91,-999.0,yes,yes,no,300234066214720,BD2VHI,AOML,UNKNOWN,North
2021-07-24T00:00:00Z,1627084800,2021,0,0,205.0,205.0,62.091,-11.986,1013.1,12.02,-999.0,yes,yes,no,300234066214720,BD2VHI,AOML,UNKNOWN,North
2021-07-24T03:00:00Z,1627095600,2021,3,0,205.125,205.125,62.085,-12.047,1011.2,12.01,-999.0,yes,yes,no,300234066214720,BD2VHI,AOML,UNKNOWN,North
2021-07-24T06:00:00Z,1627106400,2021,6,0,205.25,205.25,62.105,-12.074,1010.6,12.0,-999.0,yes,yes,no,300234066214720,BD2VHI,AOML,UNKNOWN,North
2021-07-24T09:00:00Z,1627117200,2021,9,0,205.375,205.375,62.124,-12.039,1009.7,12.01,-999.0,yes,yes,no,300234066214720,BD2VHI,AOML,UNKNOWN,North
2021-07-24T12:00:00Z,1627128000,2021,12,0,205.5,205.5,62.116,-12.023,1009.6,12.09,-999.0,yes,yes,no,300234066214720,BD2VHI,AOML,UNKNOWN,North
2021-07-24T15:00:00Z,1627138800,2021,15,0,205.625,205.625,62.102,-12.077,1009.6,12.22,-999.0,yes,yes,no,300234066214720,BD2VHI,AOML,UNKNOWN,North
2021-07-24T18:00:00Z,1627149600,2021,18,0,205.75,205.75,62.116,-12.093,1009.3,12.23,-999.0,yes,yes,no,300234066214720,BD2VHI,AOML,UNKNOWN,North
2021-07-24T21:00:00Z,1627160400,2021,21,0,205.875,205.875,62.134,-12.045,1009.8,12.18,-999.0,yes,yes,no,300234066214720,BD2VHI,AOML,UNKNOWN,North
2021-07-25T00:00:00Z,1627171200,2021,0,0,206.0,206.0,62.13,-12.016,1010.3,12.11,-999.0,yes,yes,no,300234066214720,BD2VHI,AOML,UNKNOWN,North
2021-07-25T03:00:00Z,1627182000,2021,3,0,206.125,206.125,62.12,-12.041,1010.3,12.11,-999.0,yes,yes,no,300234066214720,BD2VHI,AOML,UNKNOWN,North
2021-07-25T06:00:00Z,1627192800,2021,6,0,206.25,206.25,62.108,-12.074,1010.7,12.11,-999.0,yes,yes,no,300234066214720,BD2VHI,AOML,UNKNOWN,North
2021-07-25T09:00:00Z,1627203600,2021,9,0,206.375,206.375,62.112,-12.044,1011.3,12.19,-999.0,yes,yes,no,300234066214720,BD2VHI,AOML,UNKNOWN,North
2021-07-25T12:00:00Z,1627214400,2021,12,0,206.5,206.5,62.108,-12.02,1011.6,12.32,-999.0,yes,yes,no,300234066214720,BD2VHI,AOML,UNKNOWN,North
2021-07-25T15:00:00Z,1627225200,2021,15,0,206.625,206.625,62.099,-12.046,1011.7,12.37,-999.0,yes,yes,no,300234066214720,BD2VHI,AOML,UNKNOWN,North
2021-07-25T18:00:00Z,1627236000,2021,18,0,206.75,206.75,62.098,-12.067,1011.5,12.36,-999.0,yes,yes,no,300234066214720,BD2VHI,AOML,UNKNOWN,North
2021-07-25T21:00:00Z,1627246800,2021,21,0,206.875,206.875,62.109,-12.021,1011.6,12.34,-999.0,yes,yes,no,300234066214720,BD2VHI,AOML,UNKNOWN,North
2021-07-26T00:00:00Z,1627257600,2021,0,0,207.0,207.0,62.114,-11.982,1011.7,12.3,-999.0,yes,yes,no,300234066214720,BD2VHI,AOML,UNKNOWN,North
2021-07-26T03:00:00Z,1627268400,2021,3,0,207.125,207.125,62.111,-11.993,1011.3,12.26,-999.0,yes,yes,no,300234066214720,BD2VHI,AOML,UNKNOWN,North
2021-07-26T06:00:00Z,1627279200,2021,6,0,207.25,207.25,62.122,-12.04,1010.9,12.16,-999.0,yes,yes,no,300234066214720,BD2VHI,AOML,UNKNOWN,North
2021-07-26T09:00:00Z,1627290000,2021,9,0,207.375,207.375,62.154,-12.015,1011.3,12.19,-999.0,yes,yes,no,300234066214720,BD2VHI,AOML,UNKNOWN,North
2021-07-26T12:00:00Z,1627300800,2021,12,0,207.5,207.5,62.166,-11.96,1011.4,12.37,-999.0,yes,yes,no,300234066214720,BD2VHI,AOML,UNKNOWN,North
2021-07-26T15:00:00Z,1627311600,2021,15,0,207.625,207.625,62.173,-11.973,1011.2,12.49,-999.0,yes,yes,no,300234066214720,BD2VHI,AOML,UNKNOWN,North
2021-07-26T18:00:00Z,1627322400,2021,18,0,207.75,207.75,62.191,-11.984,1010.7,12.51,-999.0,yes,yes,no,300234066214720,BD2VHI,AOML,UNKNOWN,North
2021-07-26T21:00:00Z,1627333200,2021,21,0,207.875,207.875,62.212,-11.964,1010.6,12.52,-999.0,yes,yes,no,300234066214720,BD2VHI,AOML,UNKNOWN,North
2021-07-27T00:00:00Z,1627344000,2021,0,0,208.0,208.0,62.236,-11.931,1010.1,12.48,-999.0,yes,yes,no,300234066214720,BD2VHI,AOML,UNKNOWN,North
2021-07-27T03:00:00Z,1627354800,2021,3,0,208.125,208.125,62.248,-11.93,1009.1,12.35,-999.0,yes,yes,no,300234066214720,BD2VHI,AOML,UNKNOWN,North
2021-07-27T06:00:00Z,1627365600,2021,6,0,208.25,208.25,62.25,-11.953,1008.1,12.31,-999.0,yes,yes,no,300234066214720,BD2VHI,AOML,UNKNOWN,North
2021-07-27T09:00:00Z,1627376400,2021,9,0,208.375,208.375,62.255,-11.954,1008.1,12.38,-999.0,yes,yes,no,300234066214720,BD2VHI,AOML,UNKNOWN,North